This is the latest recevied weather packets stored in our database for station/object K8MUD. If no packets are shown the sender has not sent any weather packets the latest 10 day(s).
| Time | Temp. | Humidity | Pressure | Rain* | Wind** | Luminosity | Snow |
|---|---|---|---|---|---|---|---|
| 1777794830 | 4.44° C | 72% | 1014.1 hPa | 0 mm | - | - | - |
| 1777794530 | 3.89° C | 67% | 1014.2 hPa | 0 mm | - | - | - |
| 1777794230 | 3.89° C | 68% | 1014.2 hPa | 0 mm | - | - | - |
| 1777793930 | 3.89° C | 67% | 1014.2 hPa | 0 mm | - | - | - |
| 1777793630 | 3.89° C | 67% | 1014.2 hPa | 0 mm | - | - | - |
| 1777793330 | 4.44° C | 68% | 1014.3 hPa | 0 mm | - | - | - |
| 1777793030 | 4.44° C | 69% | 1014.3 hPa | 0 mm | - | - | - |
| 1777792730 | 4.44° C | 71% | 1014.2 hPa | 0 mm | - | - | - |
| 1777792430 | 4.44° C | 71% | 1014.2 hPa | 0 mm | - | - | - |
| 1777792129 | 3.89° C | 67% | 1014.2 hPa | 0 mm | - | - | - |
| 1777791829 | 3.89° C | 66% | 1014.3 hPa | 0 mm | - | - | - |
| 1777791529 | 4.44° C | 67% | 1014.2 hPa | 0 mm | - | - | - |
| 1777791229 | 4.44° C | 67% | 1014.3 hPa | 0 mm | - | - | - |
| 1777790929 | 4.44° C | 67% | 1014.3 hPa | 0 mm | - | - | - |
| 1777790329 | 4.44° C | 68% | 1014.4 hPa | 0 mm | - | - | - |
| 1777790029 | 4.44° C | 68% | 1014.4 hPa | 0 mm | - | - | - |
| 1777789729 | 4.44° C | 66% | 1014.4 hPa | 0 mm | - | - | - |
| 1777789429 | 4.44° C | 67% | 1014.5 hPa | 0 mm | - | - | - |
| 1777789129 | 4.44° C | 66% | 1014.4 hPa | 0 mm | - | - | - |
| 1777788829 | 4.44° C | 66% | 1014.4 hPa | 0 mm | - | - | - |
| 1777788529 | 4.44° C | 66% | 1014.5 hPa | 0 mm | - | - | - |
| 1777788228 | 4.44° C | 66% | 1014.7 hPa | 0 mm | - | - | - |
| 1777787928 | 4.44° C | 66% | 1014.7 hPa | 0 mm | - | - | - |
| 1777787628 | 4.44° C | 65% | 1014.7 hPa | 0 mm | - | - | - |
| 1777787328 | 4.44° C | 66% | 1014.7 hPa | 0 mm | - | - | - |
* Rain latest hour (hover to see other rain measurements)
** Current wind speed in m/s (hover to see current wind gust speed)